Home > Weather > Weiz > Past weeks

Flag for Austria Weather for the Past 2 Weeks in Weiz, Styria, Austria

Now
27 °F

Passing clouds.


Feels Like: N/A
Forecast: 35 / 49 °F
Wind: N/A

Location: Graz-Thalerhof-Flughafen

Current Time: Feb 7, 2016 at 2:45:15 AM

Latest Report: Feb 7, 2016 at 2:00 AM


Visibility: 6 mi

Pressure: 30.08 "Hg

Humidity: 94%

Dew point: 26 °F

Location of WeizLocation

Historic Weather in Weiz — Graph

°F

Weiz Temperature Yesterday

Maximum temperature yesterday: 52 °F (at 4:00 PM)
Minimum temperature yesterday: 26 °F (at 5:00 AM)
Average temperature yesterday: 38 °F

High & Low Weather Summary for the Past Weeks

 TemperatureHumidityPressure
High60 °F (Jan 28, 3:00 PM)100% (Jan 30, 2:00 AM)30.65 "Hg (Jan 30, 2:00 AM)
Low12 °F (Jan 23, 5:00 AM)31% (Feb 4, 1:00 PM)29.90 "Hg (Feb 3, 3:00 PM)
Average37 °F79%30.29 "Hg
* Reported Jan 22 9:00 PM — Feb 6 9:00 PM, Weiz, Weather by CustomWeather, © 2016

Note: Actual official high and low records may vary slightly from our data, if they occured in-between our weather recording intervals... More about our weather records

Advertising

Weiz Weather History for the Previous 24 Hours

 ConditionsComfort  
Time TempWeatherWind HumidityBarometerVisibility
9:00 PM
Sat, Feb 6
33 °FPassing clouds.N/A86%30.16 "Hg11 mi
8:00 PM36 °FPassing clouds.N/A80%30.16 "Hg11 mi
7:00 PM38 °FPassing clouds.N/A75%30.17 "Hg12 mi
6:00 PM41 °FPassing clouds.No wind67%30.18 "Hg6 mi
5:00 PM48 °FPartly sunny.N/A52%30.16 "Hg28 mi
4:00 PM52 °FPartly sunny.N/A44%30.17 "Hg25 mi
3:00 PM52 °FPartly sunny.N/A45%30.19 "Hg19 mi
2:00 PM50 °FScattered clouds.N/A50%30.20 "Hg22 mi
1:00 PM48 °FPassing clouds.N/A51%30.24 "Hg28 mi
12:00 PM44 °FPassing clouds.N/A61%30.27 "Hg16 mi
11:00 AM40 °FPassing clouds.N/A70%30.31 "Hg19 mi
10:00 AM37 °FPassing clouds.N/A76%30.33 "Hg16 mi
9:00 AM31 °FSunny.N/A89%30.35 "Hg8 mi
8:00 AM27 °FPassing clouds.N/A96%30.38 "Hg6 mi
7:00 AM26 °FPassing clouds.N/A95%30.37 "Hg6 mi
6:00 AM26 °FClear.N/A95%30.38 "Hg6 mi
5:00 AM26 °FIcy mix. Overcast.No wind94%30.38 "Hg1 mi
4:00 AM27 °FChilly.N/A96%30.39 "Hg10 mi
Weather by CustomWeather, © 2016

See weather overviewHow to use our weather pages